Location: Forel
(46.5500°N, 6.8167°E)
Time: 22:25:27
(UTC+00:00)

Daily predictions for brighter satellites

Satellite Brightness Start Highest point End
(mag) Time Altitude Azimuth Time Altitude Azimuth Time Altitude Azimuth
CZ-4C R/B 3.8 17:31:05 10° N 17:35:20 73° WNW 17:39:23 10° SSW
USA 267 3.3 17:29:43 10° ESE 17:36:16 77° NNE 17:42:51 10° NW
Cosmos 1626 3.1 17:33:19 10° NNW 17:36:51 51° W 17:40:22 10° S
SL-4 R/B 2.3 17:32:51 10° WNW 17:37:13 72° NNE 17:41:51 10° ESE
Cosmos 1814 Rocket 4.4 17:32:16 10° N 17:37:16 42° ENE 17:42:11 10° SE
Cosmos 1805 3.2 17:37:19 10° S 17:41:10 67° E 17:45:02 10° NNE
Cosmos 1242 Rocket 2.5 17:38:53 10° SSW 17:42:26 85° W 17:45:59 10° N
ISS -2.9 17:43:54 10° WNW 17:47:11 48° SW 17:50:26 10° SE
Cosmos 2082 4.3 17:41:40 10° NNW 17:47:21 64° WSW 17:52:59 10° SSE
Cosmos 1697 Rocket 3.8 17:42:07 10° SW 17:47:31 47° NW 17:52:57 10° NNE
CZ-4 R/B 2.4 17:44:12 10° SE 17:47:48 29° ENE 17:51:24 10° N
Okean 2 4.2 17:45:57 10° NNW 17:50:02 57° W 17:54:05 10° S
BREEZE M DEB (TANK) 4.1 17:42:54 10° SSW 17:50:05 27° SSE 17:53:02 12° E
Cosmos 1908 Rocket 4.2 17:49:02 10° SSE 17:52:54 33° E 17:56:46 10° NNE
Meteor 2-21 4.5 17:47:31 10° S 17:53:24 57° E 17:59:18 10° NNE
MOS 1-B 4.4 17:48:03 10° SSE 17:53:47 67° ENE 17:59:34 10° N
SL-14 R/B 3.2 17:50:12 10° N 17:54:12 81° E 17:58:12 10° SSE
Cosmos 1733 3.4 17:50:57 10° SSW 17:54:40 76° W 17:58:26 10° N
Cosmos 2360 Rocket 3.7 17:52:06 10° SE 17:55:01 14° E 17:57:57 10° ENE
Cosmos 1809 Rocket 4.4 17:51:57 10° S 17:58:00 76° E 18:04:06 10° NNE
Cosmos 1766 3.3 17:57:12 10° S 18:01:01 53° E 18:04:52 10° NNE
Meteor 2-10 4.2 17:56:55 10° S 18:02:33 85° E 18:08:03 10° NNE
Cosmos 1674 Rocket 3.5 17:59:00 10° N 18:03:27 82° E 18:07:53 10° S
Cosmos 1025 Rocket 4.3 18:02:39 10° NNE 18:05:57 21° ENE 18:07:56 16° ESE
YAOGAN 1 2.6 18:01:42 10° SSE 18:05:58 62° ENE 18:10:14 10° N
Cosmos 968 Rocket 3.8 18:02:41 10° S 18:07:38 43° ESE 18:12:35 10° NE
Okean O Rocket 1.7 18:05:33 10° SSE 18:09:49 56° ENE 18:14:07 10° N
IRIDIUM 106 4.3 18:06:25 10° S 18:11:34 67° E 18:16:45 10° N
Lacrosse 4 Rocket 2.5 18:09:20 10° SSE 18:12:27 21° ESE 18:13:56 18° E
SKYMED 2 4.4 18:10:00 10° N 18:14:14 53° WNW 18:18:27 10° SSW
Nadezhda 4 Rocket 4.0 18:08:38 10° S 18:14:54 70° E 18:21:11 10° NNE
Meteor 2-5 Rocket 3.9 18:10:26 10° N 18:15:46 47° ENE 18:21:05 10° SSE
Meteor 1-15 Rocket 4.2 18:11:15 10° S 18:16:39 55° E 18:22:05 10° NNE
CSL-04 Rocket 4.4 18:13:27 14° ESE 18:17:12 31° ENE 18:21:55 10° N
Cosmos 2285 Rocket 4.0 18:15:54 10° NNW 18:22:17 82° ENE 18:28:41 10° SSE
USA 186 3.0 18:22:41 24° ENE 18:22:56 25° ENE 18:25:45 10° NNE
Cosmos 1726 2.6 18:19:36 10° SSW 18:23:12 60° W 18:26:50 10° N
Cosmos 2322 Rocket 2.7 18:18:18 10° S 18:23:29 37° ESE 18:28:41 10° NE
Cosmos 1470 3.0 18:24:13 10° SSE 18:27:51 43° E 18:31:31 10° NNE
CZ-4B R/B 3.4 18:22:55 10° S 18:28:18 75° WSW 18:33:50 10° NNW
Cosmos 1980 Rocket 3.4 18:24:16 10° SW 18:29:38 43° NW 18:35:00 10° NNE
Cosmos 1378 Rocket 4.4 18:25:41 10° NNW 18:29:57 53° W 18:34:09 10° S
Cosmos 1975 Rocket 3.5 18:27:02 10° N 18:31:11 38° ENE 18:33:08 25° SE
ARGOS Delta rocket 4.3 18:26:21 10° N 18:31:37 73° WNW 18:36:33 10° SSW
Cosmos 2292 Rocket 3.5 18:32:50 10° S 18:38:02 75° E 18:41:59 10° NNE
USA 215 3.8 18:37:33 10° NE 18:43:53 55° NNW 18:50:14 10° W
IRS-1C Rocket 4.4 18:43:42 28° ESE 18:46:01 45° ENE 18:51:00 10° N
Cosmos 1844 Rocket 2.8 18:44:57 10° NNW 18:50:33 56° ENE 18:52:59 32° ESE
SL-16 R/B 2.1 18:47:58 10° SSW 18:53:38 86° ESE 18:59:21 10° NNE
Cosmos 1570 Rocket 4.3 18:50:34 10° NNW 18:55:47 65° WSW 19:00:56 10° S
Landsat 5 3.6 18:51:42 10° NNE 18:56:09 59° E 19:00:30 10° S
Cosmos 1092 Rocket 3.9 18:50:06 10° S 18:56:24 81° E 19:02:41 10° N
Resurs 01 Rocket 3.1 19:01:19 22° NE 19:01:19 22° NE 19:03:45 10° N
SJ-6B 2.5 19:02:07 69° ESE 19:02:22 72° ENE 19:06:10 10° N
Cosmos 2278 Rocket 4.0 19:01:59 10° N 19:05:15 15° NE 19:05:41 15° NE
H-2A R/B 4.0 19:07:12 22° NNE 19:07:12 22° NNE 19:08:57 10° N
Cosmos 1437 Rocket 3.8 19:02:02 10° SSW 19:05:37 44° WNW 19:09:14 10° N
Cosmos 2263 Rocket 4.3 19:04:42 10° NW 19:09:17 25° WSW 19:13:50 10° SSW
Meteor 1-24 Rocket 3.8 19:05:49 10° NNW 19:11:06 71° W 19:16:12 11° S
Resurs 1-3 3.5 19:11:26 62° ENE 19:11:29 62° ENE 19:15:50 10° N
SL-4 R/B 3.5 19:12:29 10° WNW 19:16:34 34° SW 19:17:51 28° S
USA 267 4.4 19:14:27 13° SSE 19:19:38 37° SW 19:25:38 10° WNW
Cosmos 2084 Rocket 3.5 19:15:56 10° NW 19:19:45 60° SW 19:19:51 60° SW
Okean-O 2.5 19:20:29 63° S 19:21:11 85° WSW 19:25:38 10° NNW
CZ-4 R/B 3.4 19:19:02 10° SSW 19:22:39 29° W 19:26:19 10° NW
Cosmos 1486 Rocket 3.9 19:17:43 10° SSW 19:23:01 77° ESE 19:28:22 10° NNE
OBJECT-B 3.3 19:24:56 15° NW 19:24:56 15° NW 19:25:35 10° NNW
Cosmos 1844 3.5 19:19:29 10° NNW 19:25:06 85° ENE 19:26:13 59° SE
IGS 5A 3.6 19:24:37 61° SW 19:25:06 69° WSW 19:29:14 10° NNW
DNEPR-1 R/B 3.9 19:22:39 10° SW 19:27:21 86° NW 19:30:36 25° NE
Cosmos 2333 Rocket 4.5 19:36:34 - NNE 19:36:34 - NNE 19:24:21 10° S
S3M 4.1 19:24:14 10° N 19:30:10 50° ENE 19:30:10 50° ENE
Cosmos 1300 Rocket 3.6 19:30:14 76° W 19:30:20 76° W 19:34:43 10° N
Cosmos 773 Rocket 4.4 19:26:23 10° NNW 19:31:00 49° NE 19:31:00 49° NE
Cosmos 2360 Rocket 2.1 19:32:31 10° SSW 19:38:11 89° WNW 19:43:51 10° NNE
Cosmos 1025 Rocket 4.3 19:39:40 10° NNW 19:43:42 39° W 19:44:51 32° SW
Okean O Rocket 4.4 19:43:47 10° SW 19:46:30 16° W 19:49:14 10° NW
Cosmos 1417 Rocket 4.3 19:44:37 10° N 19:50:46 85° E 19:51:04 81° SE
Lacrosse 4 Rocket 2.6 19:46:53 10° SW 19:50:17 40° WNW 19:50:17 40° WNW
ATLAS 2AS CENTAUR R/B 4.1 19:54:24 10° NNW 20:00:19 26° NNE 20:01:35 24° NE
MOS 1 4.4 20:01:33 71° N 20:01:33 71° N 20:06:35 10° NNW
Cosmos 1553 Rocket 4.5 19:58:16 10° NNW 20:04:31 59° W 20:06:34 41° SSW
SPOT 1/Viking Rocket 4.2 20:07:54 50° NNW 20:07:54 50° NNW 20:11:41 10° NNW
Cosmos 2322 Rocket 3.4 20:02:09 10° WSW 20:07:29 40° NW 20:12:51 10° NNE
NOSS 3-4 (A) 3.9 20:05:26 10° NW 20:12:04 64° NE 20:12:04 64° NE
NOSS 3-4 (C) 3.9 20:05:32 10° NW 20:12:10 64° NE 20:12:10 64° NE
Ariane Rocket 4.4 20:16:25 33° N 20:16:25 33° N 20:19:11 10° N
NOSS 3-3 (A) 4.4 20:15:44 10° SW 20:30:26 - NE 20:20:03 52° W
NOSS 3-3 (C) 4.5 20:15:49 10° SW 20:30:32 - NE 20:19:58 49° WSW
Aureole 1 Rocket 4.4 20:17:56 10° SSW 20:25:15 63° WNW 20:31:01 10° NNE
USA 281 4.1 20:27:40 38° NNE 20:27:40 38° NNE 20:32:18 10° NNW
USA 215 4.4 20:24:15 30° NNE 20:26:11 36° N 20:32:01 10° WNW
Cosmos 1844 Rocket 4.4 20:29:31 10° NW 20:34:02 25° WSW 20:34:39 24° WSW
Resurs 01 Rocket 4.0 20:38:52 21° NW 20:38:52 21° NW 20:40:35 10° NNW
Terra 4.4 20:42:43 13° N 20:42:43 13° N 20:43:16 10° N
Cosmos 1943 Rocket 4.3 20:37:15 10° N 20:38:59 17° N 20:38:59 17° N
Cosmos 2278 Rocket 3.8 20:44:49 10° NNW 20:47:32 29° NNW 20:47:32 29° NNW
ATLAS 2AS CENTAUR R/B 4.3 21:45:32 10° NW 21:49:00 30° NNW 21:49:00 30° NNW
